Temperature
8 7 7 7 8 9 9 9 9 9 10 10 9 9 10 11 10 10 11 12 12 12 12 12 12 12 11 11 11 11 11 11 11 10 10 11 11 11 11 11 11 11 11 11
7 7 8 8 9 9 9 9 9 9 10 10 9 9 9 10 10 11 11 11 12 12 11 11 11 11 11 11 11 11 10 10 10 10 10 10 10 10 10 10 10 10 10 10
7 8 9 9 9 9 8 8 8 9 9 9 9 8 9 10 10 11 11 11 12 11 11 11 11 11 11 10 10 10 10 10 10 10 10 10 10 10 10 10 10 10 10 10
7 8 9 9 8 8 8 9 9 9 8 7 8 7 8 9 9 9 9 10 11 11 11 11 11 10 10 10 10 10 10 9 9 9 9 9 9 9 9 9 9 9 9 9
7 8 8 8 9 9 8 9 8 8 7 6 6 6 7 8 8 9 8 9 10 11 10 10 10 10 10 10 9 9 9 9 9 9 9 9 9 9 8 8 8 9 9 9
7 8 9 8 9 9 8 8 7 5 5 6 6 6 7 7 9 9 8 9 10 10 10 10 10 10 10 9 9 9 9 9 9 9 8 8 8 8 8 8 8 8 8 8
7 8 8 8 8 8 7 6 6 6 5 6 7 6 7 8 9 9 8 9 9 9 9 9 9 9 9 9 9 9 8 8 8 8 8 8 8 7 7 7 7 7 7 7
6 7 7 8 8 7 6 6 6 7 6 6 6 6 7 8 9 9 9 9 9 9 9 9 9 9 9 8 8 8 8 8 8 8 8 7 7 7 7 7 7 7 7 7
6 7 7 8 8 7 6 6 6 5 5 5 6 6 7 8 8 8 8 8 8 9 9 9 8 8 8 8 8 8 8 7 7 7 7 7 7 7 6 6 6 6 6 6
6 6 7 7 8 7 7 6 5 5 5 6 6 6 7 8 7 7 6 7 8 8 8 8 8 8 8 8 7 7 7 7 7 7 7 7 6 6 6 6 6 6 6 6
6 5 5 6 6 6 6 6 5 4 4 5 5 6 7 7 7 7 7 8 8 8 8 8 8 8 8 7 7 7 7 7 6 6 6 6 6 6 6 6 6 6 6 6
5 4 4 5 6 6 6 6 5 5 4 3 4 6 8 6 7 7 7 8 8 8 8 8 8 7 7 7 7 7 6 6 6 6 6 6 6 6 6 6 6 5 5 5
5 4 4 4 5 5 5 5 5 4 3 3 4 6 7 6 6 7 7 8 8 8 8 7 7 7 7 7 6 6 6 6 6 6 6 6 6 5 5 5 5 5 5 5
4 3 4 4 5 4 4 4 4 4 4 3 4 5 6 7 6 6 7 8 8 7 7 7 7 7 6 6 6 6 6 5 5 5 5 5 5 5 5 5 5 5 5 4
4 3 3 3 4 4 4 4 4 4 4 4 5 5 6 6 6 6 7 7 7 7 7 7 7 6 6 6 6 5 5 5 5 5 5 4 4 4 4 4 4 4 4 4
2 2 2 3 4 4 4 4 4 4 4 4 5 5 6 7 7 6 7 6 6 6 6 6 6 6 6 5 5 5 5 4 4 4 4 4 4 4 4 4 4 4 4 4
1 1 2 2 2 3 2 4 4 4 4 4 5 6 6 6 6 6 6 7 6 6 6 6 6 5 5 5 5 4 4 4 4 4 3 3 3 3 3 3 3 3 3 3
1 1 1 1 1 2 4 4 5 4 5 5 5 5 5 5 6 6 7 7 6 6 6 6 5 5 5 4 4 4 4 3 3 3 3 3 3 3 3 3 2 3 3 3
1 1 1 1 1 1 3 4 4 4 4 4 4 5 5 5 5 5 6 6 6 6 6 5 5 5 4 4 4 3 3 3 3 3 2 2 2 2 2 2 2 2 2 2
1 1 1 1 1 1 3 4 4 4 3 4 4 4 4 4 3 3 5 5 5 5 5 5 4 4 4 4 3 3 3 2 2 2 2 2 2 1 1 1 1 1 1 1
0 0 1 0 1 1 3 3 4 3 3 3 4 4 4 3 4 4 5 5 5 4 4 4 4 4 3 3 3 2 2 2 2 1 1 1 1 1 1 1 1 1 0 1
-0 -0 -0 -0 0 1 3 3 2 2 3 3 4 4 4 4 4 4 4 4 4 4 4 3 3 3 3 2 2 2 2 1 1 1 1 1 0 0 0 0 0 0 -0 -0
-0 0 -0 0 1 2 3 3 4 4 3 3 3 4 4 3 3 3 3 3 3 3 3 2 2 2 2 2 1 1 1 1 0 0 0 -0 -0 -0 -0 -0 -0 -0 -1 -1
-1 -0 -0 -0 0 1 2 3 3 3 3 3 3 3 3 3 3 3 3 2 2 2 2 2 1 1 1 1 1 0 0 -0 -0 -0 -1 -1 -1 -1 -1 -1 -1 -1 -1 -1
-1 -1 -1 -1 -0 0 2 2 3 3 3 2 2 2 2 2 2 2 2 1 1 1 1 1 1 0 0 0 0 -0 -0 -1 -1 -1 -1 -1 -1 -2 -2 -2 -2 -2 -2 -2
-1 -1 -1 -0 0 0 1 2 2 2 2 2 1 1 1 1 1 1 1 0 0 0 -0 -0 -0 -0 -1 -1 -1 -1 -1 -1 -2 -2 -2 -2 -2 -2 -2 -2 -2 -2 -3 -3
Wind_Speed
4 4 8 11 12 7 5 5 6 7 4 4 10 15 15 11 9 10 9 8 8 8 7 5 4 4 2 2 2 2 2 2 1 1 1 2 3 3 3 3 3 4 4 4
3 9 11 7 7 7 7 7 7 6 4 5 8 14 13 10 9 10 10 9 9 6 4 3 3 3 3 2 1 2 2 3 3 3 3 2 3 3 4 3 4 4 4 5
11 7 7 9 8 8 9 10 8 7 6 4 6 10 8 6 5 6 7 8 7 8 7 5 3 3 2 2 3 3 3 3 3 3 2 1 1 1 2 3 3 4 5 5
9 9 6 7 9 9 8 7 8 6 3 5 1 6 8 6 6 6 6 6 7 6 5 4 3 3 3 3 3 3 3 4 4 3 3 3 3 4 5 4 4 5 5 5
7 7 9 10 10 10 7 4 4 4 4 5 4 5 9 4 6 8 7 7 6 6 6 5 4 4 3 3 3 3 3 4 4 4 4 4 5 5 4 4 5 5 5 5
7 4 6 8 5 6 4 2 2 2 2 6 7 7 8 5 7 6 5 5 6 6 5 4 2 2 1 1 2 3 3 4 4 4 5 5 6 5 5 5 5 5 4 4
5 6 5 5 4 3 4 4 0 2 2 7 5 6 9 8 7 7 7 7 5 6 5 4 2 1 2 2 3 3 3 4 4 5 5 6 6 6 7 6 6 5 4 5
6 6 9 8 9 8 9 9 7 6 6 5 3 7 8 7 5 4 5 6 6 5 4 4 4 3 2 3 2 2 3 4 5 5 5 5 5 5 5 6 6 6 6 6
7 6 2 6 6 9 7 8 6 4 1 3 6 6 7 2 0 2 4 5 5 5 4 4 3 3 2 2 2 2 3 4 4 4 4 5 5 4 5 5 5 5 6 6
6 4 3 2 3 4 6 7 5 5 5 5 5 5 5 5 5 3 4 5 4 3 3 3 3 2 2 2 3 2 2 3 4 4 4 4 5 5 5 5 6 6 7 6
3 4 2 2 8 10 7 6 5 5 4 5 5 6 6 8 7 7 6 6 5 4 3 3 2 2 2 2 2 2 3 4 5 5 5 5 5 5 5 6 7 6 6 7
3 3 4 7 4 4 7 8 8 6 6 5 4 7 5 5 5 6 5 4 3 3 3 2 2 2 2 2 3 3 4 4 5 5 5 5 5 5 5 6 6 6 6 6
3 4 1 2 2 2 4 5 6 4 4 5 6 7 3 0 2 3 3 3 2 2 2 2 2 2 2 3 3 4 5 5 6 5 5 5 5 5 5 6 6 6 6 6
2 3 6 8 5 4 5 6 7 6 6 7 9 8 6 5 4 3 3 3 3 4 4 3 3 3 3 3 4 4 6 5 5 4 4 5 5 5 5 5 5 6 6 7
3 4 6 7 5 4 6 8 9 10 10 10 9 10 12 10 7 6 5 4 4 4 4 4 4 4 3 4 4 5 5 5 5 4 4 4 5 4 5 5 6 5 5 6
2 3 2 5 6 7 9 11 12 13 12 12 11 14 12 9 6 6 6 5 5 5 4 4 4 3 4 4 5 5 6 6 4 3 4 4 4 4 5 5 5 4 4 5
4 4 2 4 3 3 9 12 14 10 9 10 14 15 9 6 7 8 7 6 6 5 4 4 4 4 5 4 4 4 5 5 4 4 4 4 4 4 5 6 5 5 4 4
6 5 3 2 1 8 8 5 9 12 12 12 11 10 8 8 6 4 5 6 5 5 4 4 4 3 3 3 3 4 4 4 4 4 5 5 5 5 5 5 5 5 5 4
9 7 4 4 5 8 8 5 4 7 8 9 12 11 8 3 1 2 2 3 5 5 4 4 3 3 2 3 3 3 4 4 4 5 5 5 5 5 5 5 6 6 6 6
6 6 5 5 5 7 6 5 3 2 6 5 5 6 4 2 2 5 3 1 2 2 2 1 1 0 1 3 2 2 4 4 5 5 5 5 5 5 5 5 6 6 6 6
4 5 8 8 7 7 7 4 1 3 6 4 1 2 2 4 5 4 2 2 1 1 1 0 1 1 2 3 2 3 4 5 5 5 5 5 5 5 5 5 5 6 6 6
7 6 6 6 7 8 4 2 4 5 2 1 1 1 2 3 2 2 2 2 1 0 0 0 0 2 3 2 2 3 5 5 5 5 5 6 6 6 6 5 6 6 6 6
7 7 5 8 8 5 3 4 4 3 3 3 2 2 2 2 2 1 1 1 1 0 1 1 1 2 3 3 2 4 5 5 4 4 5 5 6 6 6 5 6 6 5 5
5 3 4 4 6 6 5 4 3 2 3 3 2 2 2 2 2 2 1 1 1 1 1 1 1 3 4 5 4 4 5 4 4 5 5 5 5 6 6 5 5 5 5 6
6 4 4 6 6 5 4 3 3 2 1 1 2 1 2 2 2 2 2 1 1 2 2 2 2 3 5 5 5 5 4 3 4 5 5 5 5 5 6 5 5 5 5 6
5 6 6 7 7 5 5 4 2 1 1 2 1 1 1 2 3 2 2 2 1 2 2 2 3 4 5 5 5 5 4 3 4 5 5 5 5 5 5 6 7 8 8 11
Wind_Direction
175 167 208 208 205 208 196 211 245 255 259 248 250 263 270 266 252 250 246 239 225 228 231 213 193 176 159 168 178 210 237 248 231 231 238 239 245 242 236 236 238 232 231 220
170 230 226 208 207 219 232 248 257 275 277 260 270 273 270 260 245 235 230 223 218 222 220 207 188 173 175 187 207 230 233 233 227 221 220 223 231 241 236 241 241 237 230 226
205 224 206 202 212 217 233 230 237 253 305 303 301 294 276 269 251 243 229 215 206 201 201 200 183 178 178 202 226 241 248 241 236 225 213 243 262 288 263 254 244 240 234 232
224 236 221 207 216 201 237 230 224 239 274 281 264 288 279 268 280 257 239 218 206 200 189 182 180 190 201 222 231 242 255 247 235 217 207 218 232 245 249 246 248 248 240 236
222 206 205 219 220 196 213 212 215 225 218 275 246 240 278 277 258 252 236 221 205 189 176 179 190 201 214 223 223 242 259 257 242 225 216 220 237 240 251 251 250 251 245 238
238 228 209 209 214 196 172 89 36 41 133 255 221 204 273 238 227 235 225 212 196 181 178 185 200 194 225 255 244 252 258 266 261 246 233 223 234 241 247 250 247 250 251 243
245 239 214 177 170 183 156 130 340 291 252 244 210 208 252 246 238 216 205 198 189 177 174 180 180 204 238 257 260 260 259 276 277 264 248 239 238 236 236 241 241 245 248 247
207 241 208 192 192 187 192 174 183 208 224 261 237 227 253 261 256 212 182 169 166 171 178 187 196 208 234 253 269 267 267 281 284 273 264 255 246 238 239 239 239 240 243 246
199 235 227 199 186 166 173 200 180 152 195 256 255 272 294 272 357 140 144 146 169 178 183 190 201 211 232 249 267 265 268 287 291 286 272 261 250 244 246 244 242 245 246 248
177 220 240 201 149 192 177 159 143 171 192 238 263 251 235 227 212 190 180 186 192 187 191 195 204 216 231 243 270 289 282 284 290 292 285 272 259 250 247 244 243 244 246 244
169 187 245 187 196 191 170 177 175 171 184 191 237 258 227 209 200 191 199 196 192 198 202 210 224 234 248 276 292 302 306 304 299 291 286 276 263 256 253 249 247 244 244 244
165 158 223 239 252 216 195 189 171 184 218 201 205 263 275 216 200 184 189 198 203 205 203 210 229 251 275 287 296 294 298 301 294 287 281 273 269 262 256 256 249 243 244 246
155 154 177 312 297 218 215 206 194 179 168 191 203 255 302 6 163 174 181 203 214 212 217 230 247 257 268 281 290 298 299 296 297 295 284 280 277 274 265 260 252 244 242 248
119 179 201 212 225 197 223 219 198 182 203 222 225 243 269 267 252 245 234 229 222 219 219 226 246 257 266 277 286 297 302 299 299 302 299 297 292 282 278 272 266 253 244 247
132 216 232 245 247 228 239 234 218 216 218 223 235 235 248 245 236 233 232 231 230 232 235 233 245 258 274 289 296 300 304 306 307 312 310 303 301 301 304 296 285 264 248 252
158 209 235 265 247 245 256 246 233 232 231 233 249 260 254 246 239 239 240 232 227 229 231 236 245 256 270 276 288 300 305 305 311 311 305 306 314 314 316 311 304 287 265 264
185 174 199 261 270 296 260 234 224 221 216 213 235 248 254 244 236 226 222 220 222 224 225 226 233 244 256 266 278 289 294 304 313 311 311 315 317 314 311 315 324 319 296 281
180 172 192 242 193 239 248 231 217 221 232 222 229 243 241 238 236 232 216 209 218 219 220 227 233 248 261 271 291 299 310 320 320 320 321 322 325 320 318 323 322 317 312 298
190 178 192 203 232 267 282 263 213 213 245 235 234 244 248 229 82 309 258 204 209 213 217 221 221 233 263 284 293 309 318 326 329 325 321 320 321 321 321 319 314 314 313 306
186 182 195 204 221 245 260 278 262 169 262 270 228 232 236 159 201 253 254 213 209 204 199 207 231 263 312 305 309 322 316 322 318 314 313 315 318 319 316 312 308 307 306 301
173 197 214 218 231 258 265 279 87 180 252 299 232 207 184 191 211 218 195 187 183 182 201 132 89 311 291 305 330 317 312 307 303 310 318 322 323 318 309 307 310 308 306 306
185 192 205 202 219 247 253 140 187 228 263 306 306 224 191 209 200 185 175 191 194 182 322 11 359 308 310 322 327 311 303 300 307 314 318 320 321 320 322 317 314 314 311 311
204 197 195 202 220 253 220 209 236 214 214 232 225 239 202 205 204 195 188 197 229 246 294 318 303 316 323 323 315 298 298 305 311 314 313 314 317 319 320 317 314 314 314 310
252 208 194 242 262 266 266 269 278 247 231 244 234 210 189 212 223 213 226 261 294 310 307 319 332 320 314 315 310 289 294 306 312 309 309 311 315 316 317 316 313 312 312 310
225 205 214 246 264 281 275 255 254 282 313 319 314 245 208 197 222 226 233 248 266 296 305 307 298 297 301 310 309 306 305 311 308 305 307 310 310 307 310 311 306 305 297 298
206 196 205 235 234 228 251 256 239 220 277 269 268 293 290 216 216 215 225 244 258 285 302 308 310 312 311 314 313 315 313 306 302 308 310 308 307 307 308 310 311 310 305 310
Height
1478 1482 1481 1479 1479 1478 1479 1481 1481 1478 1473 1474 1472 1467 1461 1458 1458 1457 1456 1456 1456 1457 1458 1459 1459 1459 1460 1460 1460 1460 1460 1460 1460 1459 1459 1459 1459 1460 1460 1461 1462 1463 1464 1464
1479 1478 1473 1474 1476 1477 1478 1480 1480 1476 1472 1472 1470 1464 1457 1452 1451 1449 1449 1450 1451 1452 1453 1455 1455 1456 1456 1456 1456 1456 1456 1455 1455 1455 1455 1455 1455 1455 1456 1457 1457 1458 1459 1459
1473 1469 1468 1471 1473 1476 1476 1478 1477 1476 1473 1471 1471 1463 1454 1448 1445 1444 1444 1445 1446 1448 1449 1450 1451 1452 1452 1452 1452 1452 1452 1452 1451 1451 1451 1451 1451 1451 1451 1451 1452 1453 1453 1454
1469 1466 1466 1468 1470 1472 1474 1471 1472 1473 1477 1478 1475 1475 1456 1448 1445 1442 1441 1441 1442 1444 1446 1447 1447 1448 1449 1449 1449 1449 1448 1448 1447 1447 1447 1446 1446 1445 1445 1446 1447 1448 1448 1448
1463 1461 1463 1464 1464 1466 1469 1468 1471 1472 1476 1480 1476 1477 1458 1448 1445 1440 1438 1438 1439 1441 1442 1444 1445 1445 1446 1445 1445 1445 1445 1444 1444 1443 1442 1442 1441 1441 1441 1441 1442 1442 1442 1443
1460 1458 1458 1458 1460 1462 1465 1470 1473 1477 1480 1480 1471 1475 1458 1448 1440 1436 1435 1436 1436 1438 1440 1442 1443 1443 1443 1443 1442 1442 1441 1440 1440 1439 1438 1437 1437 1436 1436 1436 1436 1436 1436 1437
1458 1456 1454 1455 1460 1462 1465 1473 1480 1479 1484 1475 1464 1466 1452 1438 1433 1432 1432 1433 1434 1436 1438 1439 1440 1440 1440 1439 1439 1438 1438 1436 1435 1434 1433 1432 1432 1431 1431 1430 1430 1430 1430 1430
1458 1456 1451 1451 1453 1458 1461 1466 1473 1474 1475 1470 1462 1460 1444 1433 1430 1429 1429 1431 1433 1435 1436 1437 1437 1438 1437 1436 1435 1435 1434 1432 1431 1430 1429 1428 1427 1427 1426 1426 1425 1425 1425 1425
1455 1452 1447 1446 1447 1452 1458 1462 1462 1472 1474 1473 1462 1453 1441 1430 1430 1429 1430 1430 1432 1433 1434 1435 1436 1436 1435 1434 1433 1432 1430 1429 1427 1426 1424 1423 1422 1422 1421 1420 1420 1420 1419 1419
1449 1453 1447 1445 1447 1449 1451 1455 1464 1468 1470 1467 1459 1453 1443 1433 1431 1430 1430 1430 1430 1432 1433 1433 1434 1434 1433 1432 1430 1429 1428 1426 1424 1422 1421 1419 1418 1417 1416 1415 1414 1414 1413 1413
1445 1450 1450 1447 1447 1448 1451 1453 1455 1462 1465 1465 1460 1448 1430 1428 1427 1428 1428 1428 1429 1430 1431 1431 1431 1431 1431 1430 1428 1426 1424 1423 1421 1419 1417 1415 1414 1413 1411 1410 1409 1408 1407 1407
1444 1450 1453 1448 1443 1443 1444 1445 1451 1458 1461 1462 1462 1446 1424 1424 1424 1425 1426 1427 1428 1429 1429 1429 1429 1429 1428 1427 1425 1424 1421 1419 1417 1415 1413 1411 1410 1408 1406 1405 1404 1403 1402 1402
1443 1449 1452 1449 1449 1445 1444 1444 1445 1450 1455 1460 1457 1442 1424 1423 1423 1424 1425 1426 1427 1428 1428 1428 1427 1427 1425 1424 1422 1421 1419 1416 1414 1412 1409 1407 1405 1404 1402 1400 1399 1398 1397 1396
1440 1446 1447 1445 1441 1443 1443 1442 1442 1447 1450 1451 1445 1435 1427 1424 1423 1423 1424 1424 1425 1425 1426 1425 1425 1424 1423 1421 1420 1418 1415 1413 1411 1408 1406 1403 1401 1399 1397 1395 1394 1392 1391 1390
1440 1444 1443 1440 1438 1439 1438 1437 1438 1440 1439 1439 1432 1430 1424 1421 1421 1421 1421 1422 1423 1423 1423 1422 1422 1421 1420 1419 1417 1415 1412 1410 1407 1405 1402 1400 1398 1395 1393 1391 1389 1387 1386 1385
1440 1442 1443 1440 1436 1436 1435 1432 1432 1431 1431 1430 1427 1423 1416 1416 1417 1418 1418 1419 1419 1419 1419 1420 1419 1418 1417 1416 1414 1412 1409 1407 1404 1402 1399 1397 1394 1392 1389 1387 1384 1382 1381 1380
1440 1442 1444 1441 1437 1436 1434 1424 1422 1423 1421 1422 1421 1416 1412 1414 1414 1414 1414 1415 1415 1415 1416 1416 1416 1415 1414 1413 1411 1409 1407 1404 1401 1399 1396 1394 1391 1388 1386 1384 1380 1378 1377 1375
1437 1440 1443 1442 1441 1440 1421 1413 1412 1412 1412 1412 1411 1408 1409 1409 1410 1411 1411 1412 1412 1413 1413 1413 1413 1412 1411 1410 1408 1407 1404 1402 1399 1396 1394 1391 1389 1386 1383 1380 1377 1375 1373 1371
1430 1435 1439 1440 1440 1430 1418 1412 1411 1411 1409 1406 1406 1405 1406 1406 1408 1409 1409 1410 1410 1411 1411 1411 1410 1409 1408 1407 1405 1404 1401 1399 1396 1394 1391 1389 1386 1383 1380 1377 1374 1372 1369 1367
1427 1430 1435 1436 1435 1428 1414 1407 1405 1407 1409 1403 1403 1403 1404 1405 1411 1409 1407 1408 1408 1408 1408 1408 1407 1406 1405 1404 1403 1401 1398 1396 1393 1391 1389 1386 1383 1380 1377 1374 1372 1369 1366 1363
1429 1430 1430 1430 1429 1420 1410 1406 1405 1414 1409 1402 1401 1401 1401 1403 1404 1404 1405 1406 1406 1406 1406 1405 1404 1403 1403 1401 1400 1397 1395 1393 1391 1388 1386 1383 1380 1377 1374 1371 1368 1365 1362 1359
1423 1426 1427 1426 1427 1420 1405 1405 1408 1406 1402 1401 1400 1400 1400 1400 1400 1401 1402 1403 1403 1403 1403 1402 1402 1401 1400 1398 1396 1394 1392 1390 1387 1385 1382 1379 1376 1373 1370 1367 1364 1361 1358 1355
1416 1415 1415 1415 1412 1405 1402 1402 1401 1401 1400 1400 1400 1400 1399 1399 1399 1399 1400 1400 1400 1400 1400 1399 1399 1397 1396 1395 1393 1391 1389 1387 1384 1381 1379 1376 1373 1370 1367 1364 1361 1358 1355 1352
1411 1409 1410 1410 1405 1402 1401 1400 1399 1399 1399 1398 1398 1398 1398 1398 1398 1398 1398 1398 1398 1397 1397 1396 1395 1394 1392 1391 1390 1388 1385 1383 1380 1378 1375 1372 1369 1366 1363 1360 1358 1355 1351 1349
1407 1407 1407 1405 1402 1399 1398 1397 1397 1398 1397 1397 1397 1397 1396 1396 1396 1396 1396 1395 1395 1395 1394 1393 1392 1390 1389 1387 1385 1384 1381 1379 1376 1374 1371 1368 1365 1362 1359 1356 1354 1351 1348 1345
1400 1402 1403 1400 1397 1397 1396 1395 1395 1395 1395 1395 1394 1394 1394 1394 1393 1393 1393 1393 1392 1391 1391 1390 1388 1387 1385 1383 1381 1379 1377 1375 1372 1369 1366 1364 1361 1358 1355 1352 1349 1346 1344 1341